Location: Unspecified
(0.0000°N, 0.0000°E)
Time: 21:19:21
(UTC+00:00)

Tiangong - Visible Passes

Search period start: 26 September 2022 00:00
Search period end: 06 October 2022 00:00
Orbit: 377 x 383 km, 41.5° (Epoch: 26 September)

Date Brightness Start Highest point End Pass type
(mag) Time Alt. Az. Time Alt. Az. Time Alt. Az.
28 Sep 0.4 18:58:54 10° S 18:59:12 11° SSE 18:59:12 11° SSE visible
29 Sep 0.5 19:32:50 10° SW 19:33:49 18° SW 19:33:49 18° SW visible
30 Sep -1.3 18:31:52 10° SSW 18:34:43 32° SE 18:36:19 19° E visible
01 Oct -0.3 19:07:19 10° WSW 19:10:01 27° NW 19:10:59 22° NNW visible
03 Oct 0.9 18:42:50 10° WNW 18:44:01 12° NW 18:45:11 10° NNW visible
04 Oct 0.5 04:34:33 10° N 04:36:42 17° NE 04:38:53 10° E visible
05 Oct -2.0 05:09:08 12° WNW 05:11:56 54° SW 05:15:00 10° SE visible
